Location: Mentone
(34.5413°N, 85.5351°W)
Time: 00:44:43
(UTC-05:00)

Vanguard 3 - All Passes

Search period start: 27 May 2015 00:00
Search period end: 06 June 2015 00:00
Orbit: 509 x 3270 km, 33.3° (Epoch: 25 May)

Date Brightness Start Highest point End Pass type
(mag) Time Alt. Az. Time Alt. Az. Time Alt. Az.
27 May - 03:12:06 10° S 03:26:18 27° SE 03:39:59 10° E visible
27 May - 05:23:30 10° SW 05:42:21 55° SSE 05:55:47 10° E daylight
27 May - 07:40:10 10° WSW 07:58:00 81° S 08:08:20 10° E daylight
27 May - 09:58:41 10° W 10:12:21 80° S 10:19:41 10° ESE daylight
27 May - 12:16:14 10° W 12:24:29 36° SW 12:29:29 10° SSE daylight
28 May - 02:02:01 10° SSE 02:10:56 16° SE 02:21:40 10° ESE visible
28 May - 04:09:05 10° SSW 04:26:52 43° SSE 04:41:43 10° E visible
28 May - 06:23:42 10° WSW 06:42:59 72° SSE 06:55:25 10° E daylight
28 May - 08:41:55 10° W 08:58:19 85° S 09:07:23 10° E daylight
28 May - 11:00:11 10° W 11:11:46 59° SSW 11:18:09 10° SE daylight
28 May - 13:18:35 10° WSW 13:22:38 15° SW 13:25:34 10° SSW daylight
29 May - 02:56:04 10° SSW 03:11:22 31° SE 03:26:24 10° E visible
29 May - 05:08:05 10° SW 05:27:32 61° SSE 05:41:58 10° E daylight
29 May - 07:25:00 10° WSW 07:43:37 84° S 07:54:44 10° E daylight
29 May - 09:43:41 10° W 09:58:19 77° SSW 10:06:14 10° ESE daylight
29 May - 12:01:42 10° W 12:10:28 33° SW 12:15:48 10° SSE daylight
30 May - 01:45:09 10° S 01:56:05 20° SE 02:08:52 10° E visible
30 May - 03:53:33 10° SW 04:11:52 49° SSE 04:27:47 10° E visible
30 May - 06:08:30 10° WSW 06:28:19 77° SSE 06:41:38 10° E daylight
30 May - 08:26:48 10° W 08:44:06 85° S 08:53:51 10° E daylight
30 May - 10:45:18 10° W 10:57:42 55° SSW 11:04:35 10° SE daylight
30 May - 13:04:54 10° WSW 13:08:31 13° SW 13:11:07 10° SSW daylight
31 May - 02:40:23 10° SSW 02:56:19 36° SE 03:12:31 10° E visible
31 May - 04:52:50 10° SW 05:12:37 67° SSE 05:28:01 10° E visible
31 May - 07:09:52 10° W 07:29:08 85° S 07:41:03 10° E daylight
31 May - 09:28:37 10° W 09:44:10 74° SSW 09:52:42 10° ESE daylight
31 May - 11:47:07 10° W 11:56:19 30° SW 12:01:58 10° SSE daylight
01 Jun - 01:28:59 10° S 01:41:07 24° SE 01:55:24 10° E visible
01 Jun - 03:38:17 10° SW 03:56:47 54° SSE 04:13:42 10° E visible
01 Jun - 05:53:24 10° WSW 06:13:35 80° SSE 06:27:46 10° E daylight
01 Jun - 08:11:41 10° W 08:29:45 84° S 08:40:16 10° ESE daylight
01 Jun - 10:30:20 10° W 10:43:31 51° SSW 10:50:56 10° SE daylight
01 Jun - 12:51:33 10° WSW 12:54:19 11° SW 12:56:12 10° SW daylight
02 Jun - 00:21:46 10° SSE 00:26:19 12° SE 00:33:33 10° ESE visible
02 Jun - 02:25:01 10° SSW 02:41:11 41° SE 02:58:22 10° E visible
02 Jun - 04:37:46 10° WSW 04:57:38 71° SSE 05:13:57 10° E visible
02 Jun - 06:54:47 10° W 07:14:33 86° S 07:27:19 10° E daylight
02 Jun - 09:13:29 10° W 09:29:52 70° SSW 09:39:05 10° ESE daylight
02 Jun - 11:32:30 10° W 11:42:03 27° SW 11:48:01 10° S daylight
03 Jun - 01:13:18 10° S 01:26:03 27° SE 01:41:29 10° E visible
03 Jun - 03:23:13 10° SW 03:41:38 59° SSE 03:59:26 10° ENE visible
03 Jun - 05:38:24 10° WSW 05:58:45 83° S 06:13:50 10° E daylight
03 Jun - 07:56:33 10° W 08:15:18 82° S 08:26:34 10° ESE daylight
03 Jun - 10:15:19 10° W 10:29:11 47° SSW 10:37:10 10° SE daylight
04 Jun - 00:04:26 10° SSE 00:11:27 15° SE 00:21:21 10° E visible
04 Jun - 02:09:54 10° SSW 02:25:59 45° SE 02:44:01 10° E visible
04 Jun - 04:22:51 10° WSW 04:42:35 75° SSE 04:59:47 10° E visible
04 Jun - 06:39:45 10° W 06:59:54 86° S 07:13:29 10° E daylight
04 Jun - 08:58:19 10° W 09:15:26 66° SSW 09:25:21 10° SE daylight
04 Jun - 11:17:52 10° W 11:27:39 25° SW 11:33:53 10° S daylight
05 Jun - 00:57:59 10° S 01:10:55 31° SE 01:27:13 10° E visible
05 Jun - 03:08:21 10° SW 03:26:27 64° SSE 03:45:03 10° ENE visible
05 Jun - 05:23:30 10° WSW 05:43:52 85° S 05:59:48 10° E daylight
05 Jun - 07:41:25 10° W 08:00:44 79° SSW 08:12:48 10° ESE daylight
05 Jun - 10:00:16 10° W 10:14:42 43° SW 10:23:16 10° SSE daylight
